CW5461 Weather Reports


time (UTC)temp
C
wind
direction
speed
KPH
gust
KPH
rain 1hr
cm
rain 24hr
cm
rain mn
cm
humidity
%
barometer
mb
20260507070508 8 61 1.6 4.8 0.00 0.91 0.00 90 1004.8
20260507070035 8 224 0.0 4.8 0.00 0.91 0.00 90 1004.8
20260507065510 8 246 3.2 4.8 0.00 0.91 0.00 90 1004.7
20260507065010 8 67 0.0 4.8 0.00 0.91 0.00 89 1004.4
20260507064530 8 325 0.0 4.8 0.00 0.91 0.00 90 1004.4
20260507064004 8 145 0.0 4.8 0.00 0.91 0.00 90 1004.5
20260507063504 8 360 0.0 3.2 0.00 0.91 0.00 90 1004.6
20260507063007 9 360 0.0 3.2 0.00 0.91 0.00 90 1004.5
20260507062504 9 76 0.0 3.2 0.00 0.91 0.00 90 1004.6
20260507062005 9 275 0.0 4.8 0.00 0.91 0.00 90 1004.8
20260507061507 9 222 0.0 11.3 0.00 0.91 0.00 90 1004.8
20260507061004 9 269 0.0 11.3 0.00 0.91 0.00 90 1004.8
20260507060504 9 249 0.0 3.2 0.00 0.91 0.00 90 1004.4
20260507060013 9 271 1.6 3.2 0.00 0.91 0.00 90 1004.4
20260507055504 9 238 0.0 3.2 0.00 0.91 0.00 90 1004.3
20260507055002 9 275 0.0 4.8 0.00 0.91 0.00 90 1004.3
20260507054507 9 275 0.0 4.8 0.00 0.91 0.00 90 1004.4
20260507054004 9 288 0.0 11.3 0.00 0.91 0.00 90 1004.3
20260507053505 9 303 0.0 11.3 0.00 0.91 0.00 90 1004.5
20260507053007 9 165 1.6 6.4 0.00 0.91 0.00 90 1004.4
20260507052504 9 196 0.0 9.7 0.00 0.91 0.00 91 1004.4
20260507052007 9 252 0.0 11.3 0.00 0.91 0.00 91 1004.2
20260507051513 9 223 0.0 11.3 0.00 0.91 0.00 91 1004.1
20260507051005 10 234 1.6 9.7 0.00 0.91 0.00 91 1004.2
20260507050506 10 277 1.6 9.7 0.00 0.91 0.00 91 1004.2
20260507050020 10 269 3.2 16.1 0.00 0.91 0.00 91 1004.4
20260507045504 10 273 1.6 16.1 0.00 0.91 0.00 91 1004.4
20260507045005 10 282 3.2 11.3 0.00 0.91 0.00 91 1004.3
20260507044508 10 236 1.6 11.3 0.00 0.91 0.00 91 1004.3
20260507044010 10 277 1.6 8.0 0.00 0.91 0.00 91 1004.1
20260507043504 10 264 3.2 8.0 0.00 0.91 0.00 91 1004.2
20260507043007 10 313 3.2 8.0 0.00 0.91 0.00 91 1004.2
20260507042507 10 271 1.6 12.9 0.00 0.91 0.00 91 1004.3
20260507042007 10 253 1.6 12.9 0.00 0.91 0.00 91 1004.3
20260507041513 10 236 4.8 12.9 0.00 0.91 0.00 91 1004.1
20260507041006 10 259 3.2 9.7 0.00 0.91 0.00 91 1003.9
20260507040507 10 235 3.2 9.7 0.00 0.91 0.00 91 1003.9
20260507040009 11 274 1.6 16.1 0.00 0.91 0.00 91 1003.7
20260507035504 11 275 1.6 16.1 0.00 0.91 0.91 91 1003.8
20260507035008 11 258 1.6 11.3 0.00 0.91 0.91 91 1003.9
20260507034509 11 16 3.2 14.5 0.03 0.91 0.91 91 1004.0
20260507034003 12 280 1.6 14.5 0.03 0.91 0.91 91 1003.9
20260507033506 12 257 1.6 16.1 0.05 0.91 0.91 91 1003.7
20260507033013 13 265 1.6 19.3 0.08 0.91 0.91 92 1003.8
20260507032504 13 342 4.8 19.3 0.08 0.91 0.91 92 1003.8
20260507032004 13 255 0.0 12.9 0.08 0.91 0.91 92 1003.8
20260507031509 13 231 4.8 12.9 0.08 0.91 0.91 92 1003.7
20260507031009 13 252 3.2 11.3 0.08 0.91 0.91 92 1003.6
20260507030506 13 313 1.6 11.3 0.08 0.91 0.91 92 1003.5
20260507030012 14 238 4.8 14.5 0.08 0.91 0.91 92 1003.4
20260507025507 14 208 4.8 14.5 0.08 0.91 0.91 92 1003.3
20260507025005 14 220 1.6 14.5 0.08 0.91 0.91 92 1003.3
20260507024511 14 251 4.8 12.9 0.05 0.89 0.89 92 1003.3
20260507024007 14 256 8.0 12.9 0.05 0.89 0.89 92 1003.1
20260507023506 14 161 4.8 12.9 0.03 0.86 0.86 92 1003.2
20260507023013 14 207 4.8 12.9 0.00 0.84 0.84 92 1003.3
20260507022506 14 229 4.8 9.7 0.00 0.84 0.84 92 1003.2
20260507022007 14 217 4.8 9.7 0.00 0.84 0.84 92 1003.3
20260507021514 14 221 3.2 16.1 0.00 0.84 0.84 92 1003.3
20260507021006 14 219 3.2 16.1 0.00 0.84 0.84 92 1003.3
20260507020504 14 224 9.7 14.5 0.00 0.84 0.84 92 1003.4
20260507020012 14 244 3.2 12.9 0.00 0.84 0.84 92 1003.4
20260507015506 14 245 6.4 16.1 0.00 0.84 0.84 92 1003.5
20260507015008 14 225 3.2 17.7 0.00 0.84 0.84 92 1003.5
20260507014513 14 205 6.4 19.3 0.00 0.84 0.84 92 1003.6
20260507014007 14 238 8.0 19.3 0.00 0.84 0.84 92 1003.6
20260507013505 14 266 1.6 14.5 0.00 0.84 0.84 92 1003.5
20260507013017 14 236 6.4 16.1 0.00 0.84 0.84 92 1003.5
20260507012505 14 240 9.7 17.7 0.00 0.84 0.84 92 1003.5
20260507012007 14 202 4.8 17.7 0.00 0.84 0.84 92 1003.6
20260507011528 14 145 3.2 16.1 0.00 0.84 0.84 92 1003.5
20260507011009 14 202 4.8 16.1 0.00 0.84 0.84 92 1003.7
20260507010513 14 229 4.8 14.5 0.00 0.84 0.84 92 1003.6
20260507010008 14 218 3.2 14.5 0.00 0.84 0.84 92 1003.6
20260507005508 14 213 4.8 11.3 0.00 0.84 0.84 92 1003.6
20260507005005 14 204 4.8 11.3 0.00 0.84 0.84 92 1003.7
20260507004516 14 248 3.2 11.3 0.00 0.84 0.84 92 1003.6
20260507004006 14 264 6.4 11.3 0.00 0.84 0.84 92 1003.6
20260507003506 14 187 4.8 12.9 0.00 0.84 0.84 92 1003.6
20260507003016 14 206 4.8 12.9 0.00 0.84 0.84 92 1003.6
20260507002509 14 161 1.6 11.3 0.00 0.84 0.84 92 1003.5
20260507002011 14 236 3.2 12.9 0.00 0.84 0.84 92 1003.5
20260507001524 14 188 3.2 12.9 0.00 0.84 0.84 92 1003.5
20260507001007 14 256 3.2 11.3 0.00 0.84 0.84 92 1003.6
20260507000506 14 190 1.6 11.3 0.00 0.84 0.84 92 1003.4
20260507000019 14 159 3.2 11.3 0.00 0.84 0.84 92 1003.5
20260506235508 14 176 4.8 12.9 0.00 0.84 0.84 92 1003.4
20260506235007 14 230 3.2 11.3 0.00 0.84 0.84 92 1003.4
20260506234510 14 221 3.2 12.9 0.00 0.84 0.84 92 1003.6
20260506234008 14 209 4.8 12.9 0.00 0.84 0.84 92 1003.5
20260506233507 14 208 3.2 11.3 0.00 0.84 0.84 92 1003.5
20260506233019 14 224 4.8 17.7 0.00 0.84 0.84 92 1003.5
20260506232509 14 244 6.4 16.1 0.00 0.84 0.84 92 1003.6
20260506232006 15 242 1.6 12.9 0.00 0.84 0.84 92 1003.6
20260506231515 15 220 3.2 12.9 0.00 0.84 0.84 92 1003.5
20260506231006 15 281 4.8 12.9 0.00 0.84 0.84 92 1003.5
20260506230508 15 215 3.2 9.7 0.03 0.84 0.84 92 1003.7
20260506230020 15 211 4.8 14.5 0.03 0.84 0.84 92 1003.6
20260506225513 15 152 3.2 17.7 0.03 0.84 0.84 92 1003.7
20260506225013 15 207 6.4 17.7 0.05 0.84 0.84 92 1003.8
20260506224520 15 236 6.4 16.1 0.05 0.84 0.84 92 1003.7
20260506224009 15 152 4.8 16.1 0.08 0.84 0.84 92 1003.8
20260506223506 15 234 3.2 16.1 0.08 0.84 0.84 92 1003.8
20260506223018 15 257 3.2 16.1 0.10 0.84 0.84 92 1003.9
20260506222509 15 276 4.8 22.5 0.10 0.84 0.84 92 1004.0
20260506222009 15 212 8.0 22.5 0.13 0.84 0.84 92 1004.0
20260506221519 15 178 3.2 14.5 0.13 0.84 0.84 92 1003.9
20260506221010 15 142 4.8 14.5 0.15 0.84 0.84 92 1003.9
20260506220507 15 153 6.4 12.9 0.15 0.81 0.81 92 1004.0
20260506220020 15 216 3.2 14.5 0.18 0.81 0.81 92 1004.0
20260506215510 15 192 6.4 22.5 0.18 0.81 0.81 92 1003.9
20260506215008 15 154 6.4 22.5 0.18 0.79 0.79 92 1004.1
20260506214522 15 230 6.4 20.9 0.18 0.79 0.79 92 1004.2
20260506214008 15 149 9.7 20.9 0.18 0.76 0.76 92 1004.2
20260506213508 15 171 6.4 17.7 0.23 0.76 0.76 92 1004.3
20260506213022 15 193 6.4 17.7 0.20 0.74 0.74 92 1004.2
20260506212508 15 215 6.4 9.7 0.25 0.74 0.74 92 1004.3
20260506212013 15 211 3.2 11.3 0.25 0.71 0.71 92 1004.4
20260506211522 15 134 1.6 11.3 0.28 0.71 0.71 92 1004.5
20260506211011 15 116 1.6 6.4 0.25 0.69 0.69 92 1004.5
20260506210504 15 161 1.6 6.4 0.25 0.66 0.66 92 1004.5
20260506210009 15 179 1.6 6.4 0.23 0.64 0.64 92 1004.5
20260506205504 15 159 3.2 8.0 0.23 0.64 0.64 92 1004.6
20260506205003 15 174 0.0 8.0 0.23 0.61 0.61 92 1004.6
20260506204507 15 180 0.0 8.0 0.23 0.61 0.61 92 1004.6
20260506204002 15 186 1.6 8.0 0.20 0.58 0.58 91 1004.7
20260506203507 15 153 0.0 8.0 0.15 0.53 0.53 91 1004.7
20260506203034 15 171 3.2 8.0 0.18 0.53 0.53 91 1004.8
20260506202507 15 186 0.0 4.8 0.13 0.48 0.48 91 1004.8
20260506202009 15 217 1.6 6.4 0.13 0.46 0.46 91 1004.7
20260506201519 15 216 1.6 6.4 0.10 0.43 0.43 91 1004.6
20260506201010 15 153 1.6 6.4 0.13 0.43 0.43 91 1004.6
20260506200508 15 123 1.6 4.8 0.13 0.41 0.41 91 1004.5
20260506200021 16 132 0.0 4.8 0.13 0.41 0.41 91 1004.6
20260506195508 16 162 1.6 4.8 0.15 0.41 0.41 91 1004.6
20260506195003 16 157 0.0 3.2 0.15 0.38 0.38 91 1004.6
20260506194505 16 157 0.0 3.2 0.15 0.38 0.38 91 1004.7
20260506194006 16 157 0.0 3.2 0.20 0.38 0.38 90 1004.8
20260506193503 16 157 0.0 3.2 0.20 0.38 0.38 90 1004.9
20260506193010 16 163 0.0 4.8 0.18 0.36 0.36 90 1005.0
20260506192507 16 234 0.0 8.0 0.20 0.36 0.36 90 1005.0
20260506192009 16 238 1.6 12.9 0.23 0.33 0.33 90 1005.1
20260506191517 16 177 3.2 12.9 0.30 0.33 0.33 90 1005.2
20260506191007 16 215 3.2 6.4 0.30 0.30 0.30 90 1005.4
20260506190507 16 163 0.0 6.4 0.28 0.28 0.28 90 1005.5
20260506190020 16 222 1.6 6.4 0.28 0.28 0.28 90 1005.8
20260506185512 16 159 0.0 3.2 0.25 0.25 0.25 90 1005.5
20260506185009 16 189 0.0 3.2 0.23 0.23 0.23 89 1005.4
20260506184526 16 186 0.0 4.8 0.23 0.23 0.23 89 1005.3
20260506184007 16 157 0.0 8.0 0.18 0.18 0.18 88 1005.5
20260506183506 16 126 1.6 11.3 0.18 0.18 0.18 87 1005.4
20260506183011 16 238 6.4 11.3 0.18 0.18 0.18 86 1005.4
20260506182507 16 238 1.6 12.9 0.15 0.15 0.15 85 1005.5
20260506182006 17 257 3.2 12.9 0.10 0.10 0.10 80 1005.6
20260506181513 18 257 3.2 24.1 0.03 0.03 0.03 75 1005.5
20260506181007 18 224 1.6 24.1 0.00 0.00 0.00 73 1005.1
20260506180509 19 183 4.8 14.5 0.00 0.00 0.00 66 1004.9
20260506180025 20 124 4.8 14.5 0.00 0.00 0.00 65 1004.9
20260506175509 20 201 3.2 14.5 0.00 0.00 0.00 65 1004.8
20260506175012 20 69 1.6 14.5 0.00 0.00 0.00 64 1004.9
20260506174522 20 223 6.4 12.9 0.00 0.00 0.00 64 1004.9
20260506174009 20 183 3.2 12.9 0.00 0.00 0.00 65 1004.9
20260506173512 20 132 3.2 11.3 0.00 0.00 0.00 66 1005.0
20260506173016 20 110 3.2 12.9 0.00 0.00 0.00 65 1005.1
20260506172505 20 150 4.8 12.9 0.00 0.00 0.00 63 1005.2
20260506172012 20 119 3.2 11.3 0.00 0.00 0.00 64 1005.2
20260506171515 20 128 1.6 9.7 0.00 0.00 0.00 66 1005.2
20260506171011 20 86 3.2 9.7 0.00 0.00 0.00 65 1005.3
20260506170506 20 101 1.6 8.0 0.00 0.00 0.00 64 1005.3
20260506170017 20 130 3.2 12.9 0.00 0.00 0.00 64 1005.4
20260506165511 21 146 4.8 20.9 0.00 0.00 0.00 61 1005.5
20260506165008 21 236 8.0 27.4 0.00 0.00 0.00 59 1005.6
20260506164528 21 257 9.7 27.4 0.00 0.00 0.00 60 1005.6
20260506164014 21 176 11.3 20.9 0.00 0.00 0.00 60 1005.7
20260506163508 21 213 6.4 19.3 0.00 0.00 0.00 62 1005.7
20260506163031 21 171 8.0 17.7 0.00 0.00 0.00 61 1005.9
20260506162510 21 161 6.4 14.5 0.00 0.00 0.00 61 1005.9
20260506162009 21 172 4.8 19.3 0.00 0.00 0.00 61 1006.1
20260506161513 21 205 4.8 19.3 0.00 0.00 0.00 63 1006.2
20260506161011 21 170 6.4 17.7 0.00 0.00 0.00 62 1006.4
20260506160510 21 237 8.0 17.7 0.00 0.00 0.00 62 1006.5
20260506160012 21 148 8.0 16.1 0.00 0.00 0.00 62 1006.6
20260506155507 21 235 4.8 17.7 0.00 0.00 0.00 62 1006.7
20260506155011 21 193 6.4 17.7 0.00 0.00 0.00 62 1006.8
20260506154521 21 294 3.2 17.7 0.00 0.00 0.00 61 1007.0
20260506154011 21 213 8.0 17.7 0.00 0.00 0.00 61 1007.1
20260506153511 21 203 8.0 24.1 0.00 0.00 0.00 62 1007.2
20260506153021 21 233 11.3 24.1 0.00 0.00 0.00 62 1007.1
20260506152512 21 227 6.4 17.7 0.00 0.00 0.00 65 1007.0
20260506152010 20 233 6.4 17.7 0.00 0.00 0.00 64 1006.9
20260506151529 20 235 8.0 24.1 0.00 0.00 0.00 66 1006.9
20260506151013 20 196 11.3 24.1 0.00 0.00 0.00 66 1007.0
20260506150509 20 273 6.4 22.5 0.00 0.00 0.00 66 1007.2
20260506150010 20 277 6.4 22.5 0.00 0.00 0.00 66 1007.1
20260506145510 20 242 6.4 22.5 0.00 0.00 0.00 66 1007.0
20260506145010 20 257 8.0 19.3 0.00 0.00 0.00 67 1006.9
20260506144518 20 245 9.7 17.7 0.00 0.00 0.00 67 1007.0
20260506144012 20 236 8.0 24.1 0.00 0.00 0.00 67 1007.0
20260506143508 20 243 8.0 24.1 0.00 0.00 0.00 66 1007.1
20260506143025 20 217 9.7 20.9 0.00 0.00 0.00 67 1006.9
20260506142514 20 116 6.4 11.3 0.00 0.00 0.00 66 1006.8
20260506142010 20 94 4.8 19.3 0.00 0.00 0.00 66 1006.8
20260506141523 20 240 6.4 19.3 0.00 0.00 0.00 68 1006.9
20260506141014 19 188 6.4 17.7 0.00 0.00 0.00 68 1006.9
20260506140512 19 236 11.3 17.7 0.00 0.00 0.00 67 1006.9
20260506140028 19 178 6.4 19.3 0.00 0.00 0.00 69 1006.9
20260506135507 18 215 6.4 19.3 0.00 0.00 0.00 69 1007.1
20260506135008 18 254 6.4 16.1 0.00 0.00 0.00 69 1007.1
20260506134528 18 255 8.0 16.1 0.00 0.00 0.00 71 1007.2
20260506134012 18 151 4.8 14.5 0.00 0.00 0.00 70 1007.2
20260506133511 18 173 6.4 16.1 0.00 0.00 0.00 71 1007.3
20260506133020 18 242 6.4 17.7 0.00 0.00 0.00 71 1007.2
20260506132513 18 226 6.4 17.7 0.00 0.00 0.00 69 1007.2
20260506132011 18 186 4.8 16.1 0.00 0.00 0.00 70 1007.2
20260506131532 18 229 6.4 19.3 0.00 0.00 0.00 71 1007.3
20260506131010 18 230 8.0 19.3 0.00 0.00 0.00 71 1007.4
20260506130514 18 223 4.8 14.5 0.00 0.00 0.00 72 1007.4
20260506130028 18 234 8.0 14.5 0.00 0.00 0.00 72 1007.3
20260506125510 17 235 4.8 17.7 0.00 0.00 0.00 73 1007.3
20260506125009 17 250 8.0 22.5 0.00 0.00 0.00 72 1007.2
20260506124529 17 148 4.8 22.5 0.00 0.00 0.00 72 1007.2
20260506124010 17 224 6.4 19.3 0.00 0.00 0.00 72 1007.2
20260506123511 18 177 6.4 17.7 0.00 0.00 0.00 71 1007.2
20260506123027 17 229 8.0 19.3 0.00 0.00 0.00 73 1007.3
20260506122506 17 203 6.4 19.3 0.00 0.00 0.00 72 1007.4
20260506122010 17 233 6.4 17.7 0.00 0.00 0.00 73 1007.4
20260506121522 17 205 4.8 17.7 0.00 0.00 0.00 74 1007.4
20260506121005 17 231 1.6 16.1 0.00 0.00 0.00 75 1007.4
20260506120507 17 225 4.8 16.1 0.00 0.00 0.00 74 1007.5
20260506120014 16 207 4.8 14.5 0.00 0.00 0.00 75 1007.6
20260506115511 16 249 6.4 17.7 0.00 0.00 0.00 75 1007.5
20260506115012 16 169 3.2 17.7 0.00 0.00 0.00 75 1007.7
20260506114511 16 284 6.4 17.7 0.00 0.00 0.00 74 1007.7
20260506114008 16 192 6.4 17.7 0.00 0.00 0.00 75 1007.6
20260506113511 16 197 3.2 14.5 0.00 0.00 0.00 76 1007.7
20260506113030 16 257 3.2 6.4 0.00 0.00 0.00 76 1007.8
20260506112510 16 193 1.6 11.3 0.00 0.00 0.00 76 1007.7
20260506112009 16 192 4.8 17.7 0.00 0.00 0.00 76 1007.6
20260506111503 16 312 3.2 17.7 0.00 0.00 0.00 76 1007.8
20260506111004 16 231 6.4 16.1 0.00 0.00 0.00 76 1007.9
20260506110505 15 226 4.8 14.5 0.00 0.00 0.00 77 1007.7
20260506110005 15 209 3.2 14.5 0.00 0.00 0.00 77 1007.5
20260506105506 15 255 4.8 12.9 0.00 0.00 0.00 76 1007.7
20260506105009 15 225 4.8 12.9 0.00 0.00 0.00 76 1007.7
20260506104508 15 193 3.2 12.9 0.00 0.00 0.00 77 1007.6
20260506104006 15 193 3.2 11.3 0.00 0.00 0.00 77 1007.7
20260506103509 15 227 1.6 11.3 0.00 0.00 0.00 77 1007.8
20260506103014 15 224 4.8 14.5 0.00 0.00 0.00 77 1008.0
20260506102509 15 258 4.8 14.5 0.00 0.00 0.00 77 1007.8
20260506102011 15 230 3.2 9.7 0.00 0.00 0.00 77 1008.0
20260506101533 15 194 3.2 12.9 0.00 0.00 0.00 77 1008.0
20260506101008 15 209 4.8 14.5 0.00 0.00 0.00 77 1008.0
20260506100504 15 227 6.4 14.5 0.00 0.00 0.00 77 1008.0
20260506100008 15 293 3.2 8.0 0.00 0.00 0.00 77 1007.8
20260506095510 15 238 4.8 11.3 0.00 0.00 0.00 77 1007.8
20260506095006 15 235 4.8 12.9 0.00 0.00 0.00 77 1007.8
20260506094519 15 226 3.2 12.9 0.00 0.00 0.00 77 1007.8
20260506094008 15 218 1.6 8.0 0.00 0.00 0.00 77 1007.8
20260506093507 15 239 3.2 6.4 0.00 0.00 0.00 77 1007.9
20260506093018 15 242 1.6 8.0 0.00 0.00 0.00 77 1007.8
20260506092508 15 189 1.6 8.0 0.00 0.00 0.00 76 1007.8
20260506092013 15 223 1.6 8.0 0.00 0.00 0.00 76 1007.8
20260506091522 15 240 1.6 6.4 0.00 0.00 0.00 75 1007.7
20260506091008 15 215 0.0 8.0 0.00 0.00 0.00 75 1007.7
20260506090507 15 222 1.6 8.0 0.00 0.00 0.00 74 1007.6
20260506090026 15 218 1.6 12.9 0.00 0.00 0.00 74 1007.6
20260506085508 15 240 1.6 14.5 0.00 0.00 0.00 74 1007.6
20260506085004 15 211 3.2 14.5 0.00 0.00 0.00 74 1007.7
20260506084511 15 219 3.2 11.3 0.00 0.00 0.00 74 1007.5
20260506084005 15 189 3.2 8.0 0.00 0.00 0.00 73 1007.5
20260506083505 15 236 1.6 8.0 0.00 0.00 0.00 73 1007.5
20260506083012 15 212 3.2 12.9 0.00 0.00 0.00 73 1007.4
20260506082508 15 207 4.8 12.9 0.00 0.00 0.00 72 1007.4
20260506082005 15 220 4.8 9.7 0.00 0.00 0.00 72 1007.3
20260506081523 15 236 3.2 9.7 0.00 0.00 0.00 72 1007.3
20260506081010 15 244 3.2 12.9 0.00 0.00 0.00 71 1007.4
20260506080510 15 198 3.2 12.9 0.00 0.00 0.00 71 1007.4
20260506073508 16 247 6.4 14.5 0.00 0.00 0.00 69 1007.2
20260506073027 16 268 6.4 12.9 0.00 0.00 0.00 68 1007.2
20260506072507 16 173 4.8 17.7 0.00 0.00 0.00 68 1007.1
20260506072007 16 233 6.4 17.7 0.00 0.00 0.00 67 1007.1
20260506071518 16 242 8.0 17.7 0.00 0.00 0.00 67 1007.1
20260506071013 16 236 8.0 16.1 0.00 0.00 0.00 68 1006.9